When you browse on this site, cookies collect data to enhance your experience and personalize the content and advertising you see.
Visit our Privacy Policy to learn more. By continuing to use the site, you agree to this use of cookies and data.
  • In Deutschland
  • Länderverzeichnis
  • Für 7 Tage
  • Wassertemperatur
  • Wetterkarte
  • Widgets
  • user-avatar
    Anmelden

    Stündliche Wetter Putten

    Heute, 21 Februar, Freitag

    Zeit Temperatur Niederschläge Wind Luftdruck Luftfeuchtigkeit
    00:00 +2°C° 0 mm 5 m/S 761 mmHg 76%
    01:00 +2°C° 0 mm 6 m/S 761 mmHg 76%
    02:00 +2°C° 0 mm 6 m/S 762 mmHg 76%
    03:00 +3°C° 0 mm 6 m/S 762 mmHg 77%
    04:00 +2°C° 0 mm 5 m/S 763 mmHg 79%
    05:00 +2°C° 0 mm 5 m/S 764 mmHg 81%
    06:00 +2°C° 0 mm 3 m/S 765 mmHg 83%
    13:00 +7°C° 0 mm 8 m/S 765 mmHg 67%
    14:00 +7°C° 0 mm 8 m/S 765 mmHg 68%
    15:00 +8°C° 0 mm 7 m/S 765 mmHg 70%
    16:00 +6°C° 0 mm 8 m/S 765 mmHg 72%
    17:00 +6°C° 0 mm 8 m/S 765 mmHg 73%
    18:00 +6°C° 0 mm 8 m/S 765 mmHg 75%
    19:00 +6°C° 0 mm 8 m/S 764 mmHg 75%
    20:00 +6°C° 0 mm 8 m/S 764 mmHg 75%
    21:00 +6°C° 0 mm 9 m/S 764 mmHg 76%
    22:00 +6°C° 0 mm 9 m/S 763 mmHg 76%
    23:00 +6°C° 0 mm 9 m/S 763 mmHg 76%

    Morgen, 22 Februar, Samstag

    Zeit Temperatur Niederschläge Wind Luftdruck Luftfeuchtigkeit
    00:00 +6°C° 0 mm 9 m/S 763 mmHg 77%
    01:00 +6°C° 0 mm 9 m/S 762 mmHg 77%
    02:00 +5°C° 0 mm 10 m/S 761 mmHg 78%
    03:00 +5°C° 0 mm 10 m/S 760 mmHg 79%
    04:00 +5°C° 0 mm 10 m/S 760 mmHg 77%
    05:00 +4°C° 0 mm 11 m/S 760 mmHg 75%
    06:00 +4°C° 0 mm 11 m/S 759 mmHg 73%
    07:00 +4°C° 0.1 mm 11 m/S 759 mmHg 74%
    08:00 +6°C° 0.1 mm 11 m/S 759 mmHg 75%
    09:00 +7°C° 0.1 mm 12 m/S 758 mmHg 75%
    10:00 +7°C° 0.1 mm 11 m/S 759 mmHg 75%
    11:00 +8°C° 0.1 mm 11 m/S 759 mmHg 76%
    12:00 +9°C° 0.1 mm 11 m/S 760 mmHg 76%
    13:00 +9°C° 0.1 mm 11 m/S 760 mmHg 72%
    14:00 +9°C° 0.1 mm 10 m/S 760 mmHg 67%
    15:00 +8°C° 0.1 mm 9 m/S 760 mmHg 63%
    16:00 +9°C° 0 mm 8 m/S 761 mmHg 65%
    17:00 +8°C° 0 mm 7 m/S 761 mmHg 67%
    18:00 +6°C° 0 mm 7 m/S 762 mmHg 69%
    19:00 +6°C° 0 mm 7 m/S 762 mmHg 68%
    20:00 +7°C° 0 mm 6 m/S 763 mmHg 68%
    21:00 +5°C° 0 mm 6 m/S 763 mmHg 67%
    22:00 +5°C° 0 mm 6 m/S 763 mmHg 68%
    23:00 +5°C° 0 mm 7 m/S 764 mmHg 68%

    übermorgen, 23 Februar, Sonntag

    Zeit Temperatur Niederschläge Wind Luftdruck Luftfeuchtigkeit
    00:00 +5°C° 0 mm 7 m/S 764 mmHg 69%
    01:00 +5°C° 0 mm 7 m/S 764 mmHg 71%
    02:00 +5°C° 0 mm 7 m/S 764 mmHg 72%
    03:00 +5°C° 0 mm 7 m/S 763 mmHg 74%
    04:00 +4°C° 0.4 mm 7 m/S 763 mmHg 79%
    05:00 +4°C° 0.4 mm 6 m/S 763 mmHg 84%
    06:00 +4°C° 0.4 mm 6 m/S 762 mmHg 89%
    07:00 +4°C° 1.6 mm 6 m/S 760 mmHg 91%
    08:00 +5°C° 1.6 mm 7 m/S 759 mmHg 92%
    09:00 +5°C° 1.6 mm 7 m/S 757 mmHg 93%
    10:00 +7°C° 1.8 mm 9 m/S 756 mmHg 89%
    11:00 +9°C° 1.8 mm 11 m/S 755 mmHg 85%
    12:00 +12°C° 1.8 mm 13 m/S 753 mmHg 80%
    13:00 +10°C° 0.5 mm 13 m/S 754 mmHg 82%
    14:00 +10°C° 0.5 mm 13 m/S 754 mmHg 83%
    15:00 +10°C° 0.5 mm 12 m/S 754 mmHg 85%
    16:00 +8°C° 0.6 mm 11 m/S 756 mmHg 84%
    17:00 +7°C° 0.6 mm 9 m/S 757 mmHg 83%
    18:00 +5°C° 0.6 mm 7 m/S 759 mmHg 83%
    19:00 +5°C° 0 mm 7 m/S 760 mmHg 82%
    20:00 +4°C° 0 mm 6 m/S 761 mmHg 81%
    21:00 +3°C° 0 mm 6 m/S 763 mmHg 80%
    22:00 +3°C° 0 mm 5 m/S 764 mmHg 79%
    23:00 +3°C° 0 mm 4 m/S 765 mmHg 78%

    24 Februar, Montag

    Zeit Temperatur Niederschläge Wind Luftdruck Luftfeuchtigkeit
    00:00 +3°C° 0 mm 3 m/S 765 mmHg 77%
    01:00 +2°C° 0 mm 3 m/S 765 mmHg 79%
    02:00 +2°C° 0 mm 3 m/S 765 mmHg 80%
    03:00 +2°C° 0 mm 3 m/S 766 mmHg 82%
    04:00 +2°C° 0 mm 3 m/S 765 mmHg 82%
    05:00 +2°C° 0 mm 3 m/S 765 mmHg 83%
    06:00 +2°C° 0 mm 3 m/S 765 mmHg 83%
    07:00 +2°C° 0.1 mm 3 m/S 764 mmHg 83%
    08:00 +3°C° 0.1 mm 3 m/S 764 mmHg 82%
    09:00 +3°C° 0.1 mm 4 m/S 763 mmHg 82%
    10:00 +3°C° 0 mm 5 m/S 762 mmHg 83%
    11:00 +5°C° 0 mm 5 m/S 761 mmHg 85%
    12:00 +5°C° 0 mm 6 m/S 759 mmHg 87%
    13:00 +6°C° 0 mm 7 m/S 758 mmHg 86%
    14:00 +8°C° 0 mm 7 m/S 757 mmHg 85%
    15:00 +9°C° 0 mm 8 m/S 756 mmHg 84%
    16:00 +9°C° 0 mm 8 m/S 755 mmHg 83%
    17:00 +8°C° 0 mm 9 m/S 755 mmHg 81%
    18:00 +7°C° 0 mm 9 m/S 754 mmHg 79%
    19:00 +8°C° 0 mm 9 m/S 754 mmHg 80%
    20:00 +8°C° 0 mm 9 m/S 754 mmHg 81%
    21:00 +8°C° 0 mm 9 m/S 753 mmHg 82%
    22:00 +7°C° 0 mm 9 m/S 753 mmHg 79%
    23:00 +6°C° 0 mm 8 m/S 753 mmHg 76%

    25 Februar, Dienstag

    Zeit Temperatur Niederschläge Wind Luftdruck Luftfeuchtigkeit
    00:00 +5°C° 0 mm 7 m/S 753 mmHg 73%
    01:00 +4°C° 0 mm 7 m/S 753 mmHg 74%
    02:00 +4°C° 0 mm 7 m/S 753 mmHg 75%
    03:00 +3°C° 0 mm 6 m/S 753 mmHg 75%
    04:00 +3°C° 0 mm 7 m/S 753 mmHg 73%
    05:00 +3°C° 0 mm 7 m/S 753 mmHg 71%
    06:00 +3°C° 0 mm 7 m/S 753 mmHg 68%
    07:00 +3°C° 0 mm 7 m/S 753 mmHg 67%
    08:00 +2°C° 0 mm 8 m/S 752 mmHg 66%
    09:00 +4°C° 0 mm 8 m/S 752 mmHg 64%
    10:00 +4°C° 0 mm 8 m/S 752 mmHg 64%
    11:00 +4°C° 0 mm 8 m/S 752 mmHg 63%
    12:00 +3°C° 0 mm 9 m/S 752 mmHg 62%
    13:00 +4°C° 0 mm 8 m/S 751 mmHg 61%
    14:00 +5°C° 0 mm 8 m/S 751 mmHg 61%
    15:00 +5°C° 0 mm 8 m/S 750 mmHg 60%
    16:00 +4°C° 0.1 mm 7 m/S 750 mmHg 64%
    17:00 +4°C° 0.1 mm 6 m/S 749 mmHg 68%
    18:00 +3°C° 0.1 mm 5 m/S 749 mmHg 72%
    19:00 +3°C° 0.4 mm 5 m/S 748 mmHg 79%
    20:00 +2°C° 0.4 mm 6 m/S 747 mmHg 85%
    21:00 +2°C° 0.4 mm 6 m/S 746 mmHg 91%
    22:00 +2°C° 0.9 mm 7 m/S 745 mmHg 91%
    23:00 0°C° 0.9 mm 7 m/S 745 mmHg 91%

    26 Februar, Mittwoch

    Zeit Temperatur Niederschläge Wind Luftdruck Luftfeuchtigkeit
    00:00 0°C° 0.9 mm 8 m/S 744 mmHg 91%
    01:00 0°C° 1 mm 9 m/S 744 mmHg 89%
    02:00 -1°C° 1 mm 11 m/S 743 mmHg 87%
    03:00 -1°C° 1 mm 12 m/S 743 mmHg 86%
    04:00 -2°C° 0.6 mm 11 m/S 743 mmHg 85%
    05:00 -2°C° 0.6 mm 11 m/S 743 mmHg 85%
    06:00 -2°C° 0.6 mm 10 m/S 744 mmHg 84%
    07:00 -2°C° 0.6 mm 11 m/S 744 mmHg 84%
    08:00 -2°C° 0.6 mm 11 m/S 745 mmHg 85%
    09:00 -2°C° 0.6 mm 11 m/S 745 mmHg 85%
    10:00 -1°C° 0.3 mm 11 m/S 746 mmHg 84%
    11:00 -1°C° 0.3 mm 11 m/S 747 mmHg 83%
    12:00 +1°C° 0.3 mm 10 m/S 748 mmHg 82%
    13:00 +1°C° 0.2 mm 9 m/S 749 mmHg 78%
    14:00 +1°C° 0.2 mm 9 m/S 749 mmHg 75%
    15:00 +2°C° 0.2 mm 8 m/S 750 mmHg 71%
    16:00 +2°C° 0.1 mm 7 m/S 750 mmHg 75%
    17:00 +2°C° 0.1 mm 6 m/S 751 mmHg 78%
    18:00 +1°C° 0.1 mm 5 m/S 751 mmHg 82%
    19:00 +1°C° 0.1 mm 5 m/S 752 mmHg 81%
    20:00 +1°C° 0.1 mm 5 m/S 752 mmHg 81%
    21:00 +1°C° 0.1 mm 5 m/S 753 mmHg 80%
    22:00 +1°C° 0.1 mm 5 m/S 753 mmHg 80%
    23:00 +1°C° 0.1 mm 6 m/S 754 mmHg 79%
    Mehr zeigen